Year,Month,Day,Hour,Minute,Value (Times are PST for temperature in C)
2016,04,07,00,00,10.00
2016,04,07,00,01,9.90
2016,04,07,00,02,9.90
2016,04,07,00,03,9.90
2016,04,07,00,04,9.90
2016,04,07,00,05,9.90
2016,04,07,00,06,9.90
2016,04,07,00,07,9.90
2016,04,07,00,08,9.90
2016,04,07,00,09,9.90
2016,04,07,00,10,9.80
2016,04,07,00,11,9.80
2016,04,07,00,12,9.80
2016,04,07,00,13,9.80
2016,04,07,00,14,9.80
2016,04,07,00,15,9.80
2016,04,07,00,16,9.80
2016,04,07,00,17,9.80
2016,04,07,00,18,9.80
2016,04,07,00,19,9.80
2016,04,07,00,20,9.80
2016,04,07,00,21,9.80
2016,04,07,00,22,9.80
2016,04,07,00,23,9.80
2016,04,07,00,24,9.80
2016,04,07,00,25,9.80
2016,04,07,00,26,9.80
2016,04,07,00,27,9.70
2016,04,07,00,28,9.80
2016,04,07,00,29,9.70
2016,04,07,00,30,9.80
2016,04,07,00,31,9.80
2016,04,07,00,32,9.80
2016,04,07,00,33,9.80
2016,04,07,00,34,9.80
2016,04,07,00,35,9.80
2016,04,07,00,36,9.80
2016,04,07,00,37,9.70
2016,04,07,00,38,9.70
2016,04,07,00,39,9.70
2016,04,07,00,40,9.70
2016,04,07,00,41,9.70
2016,04,07,00,42,9.70
2016,04,07,00,43,9.70
2016,04,07,00,44,9.70
2016,04,07,00,45,9.70
2016,04,07,00,46,9.70
2016,04,07,00,47,9.70
2016,04,07,00,48,9.60
2016,04,07,00,49,9.60
2016,04,07,00,50,9.60
2016,04,07,00,51,9.60
2016,04,07,00,52,9.60
2016,04,07,00,53,9.60
2016,04,07,00,54,9.60
2016,04,07,00,55,9.60
2016,04,07,00,56,9.60
2016,04,07,00,57,9.60
2016,04,07,00,58,9.60
2016,04,07,00,59,9.60
2016,04,07,01,00,9.60
2016,04,07,01,01,9.60
2016,04,07,01,02,9.60
2016,04,07,01,03,9.60
2016,04,07,01,04,9.60
2016,04,07,01,05,9.60
2016,04,07,01,06,9.60
2016,04,07,01,07,9.60
2016,04,07,01,08,9.60
2016,04,07,01,09,9.60
2016,04,07,01,10,9.60
2016,04,07,01,11,9.60
2016,04,07,01,12,9.60
2016,04,07,01,13,9.60
2016,04,07,01,14,9.60
2016,04,07,01,15,9.60
2016,04,07,01,16,9.60
2016,04,07,01,17,9.60
2016,04,07,01,18,9.60
2016,04,07,01,19,9.50
2016,04,07,01,20,9.50
2016,04,07,01,21,9.50
2016,04,07,01,22,9.50
2016,04,07,01,23,9.50
2016,04,07,01,24,9.50
2016,04,07,01,25,9.50
2016,04,07,01,26,9.50
2016,04,07,01,27,9.50
2016,04,07,01,28,9.50
2016,04,07,01,29,9.50
2016,04,07,01,30,9.50
2016,04,07,01,31,9.50
2016,04,07,01,32,9.50
2016,04,07,01,33,9.50
2016,04,07,01,34,9.50
2016,04,07,01,35,9.50
2016,04,07,01,36,9.50
2016,04,07,01,37,9.50
2016,04,07,01,38,9.50
2016,04,07,01,39,9.50
2016,04,07,01,40,9.60
2016,04,07,01,41,9.60
2016,04,07,01,42,9.60
2016,04,07,01,43,9.60
2016,04,07,01,44,9.60
2016,04,07,01,45,9.60
2016,04,07,01,46,9.60
2016,04,07,01,47,9.60
2016,04,07,01,48,9.60
2016,04,07,01,49,9.60
2016,04,07,01,50,9.60
2016,04,07,01,51,9.60
2016,04,07,01,52,9.60
2016,04,07,01,53,9.70
2016,04,07,01,54,9.70
2016,04,07,01,55,9.70
2016,04,07,01,56,9.60
2016,04,07,01,57,9.60
2016,04,07,01,58,9.60
2016,04,07,01,59,9.70
2016,04,07,02,00,9.70
2016,04,07,02,01,9.60
2016,04,07,02,02,9.60
2016,04,07,02,03,9.60
2016,04,07,02,04,9.60
2016,04,07,02,05,9.60
2016,04,07,02,06,9.60
2016,04,07,02,07,9.60
2016,04,07,02,08,9.60
2016,04,07,02,09,9.60
2016,04,07,02,10,9.60
2016,04,07,02,11,9.60
2016,04,07,02,12,9.60
2016,04,07,02,13,9.60
2016,04,07,02,14,9.60
2016,04,07,02,15,9.60
2016,04,07,02,16,9.50
2016,04,07,02,17,9.50
2016,04,07,02,18,9.50
2016,04,07,02,19,9.50
2016,04,07,02,20,9.50
2016,04,07,02,21,9.50
2016,04,07,02,22,9.50
2016,04,07,02,23,9.50
2016,04,07,02,24,9.50
2016,04,07,02,25,9.50
2016,04,07,02,26,9.50
2016,04,07,02,27,9.40
2016,04,07,02,28,9.50
2016,04,07,02,29,9.40
2016,04,07,02,30,9.40
2016,04,07,02,31,9.40
2016,04,07,02,32,9.40
2016,04,07,02,33,9.40
2016,04,07,02,34,9.40
2016,04,07,02,35,9.40
2016,04,07,02,36,9.40
2016,04,07,02,37,9.40
2016,04,07,02,38,9.40
2016,04,07,02,39,9.40
2016,04,07,02,40,9.40
2016,04,07,02,41,9.40
2016,04,07,02,42,9.40
2016,04,07,02,43,9.40
2016,04,07,02,44,9.40
2016,04,07,02,45,9.40
2016,04,07,02,46,9.30
2016,04,07,02,47,9.30
2016,04,07,02,48,9.30
2016,04,07,02,49,9.30
2016,04,07,02,50,9.30
2016,04,07,02,51,9.30
2016,04,07,02,52,9.30
2016,04,07,02,53,9.30
2016,04,07,02,54,9.30
2016,04,07,02,55,9.30
2016,04,07,02,56,9.30
2016,04,07,02,57,9.30
2016,04,07,02,58,9.30
2016,04,07,02,59,9.30
2016,04,07,03,00,9.30
2016,04,07,03,01,9.20
2016,04,07,03,02,9.20
2016,04,07,03,03,9.20
2016,04,07,03,04,9.20
2016,04,07,03,05,9.20
2016,04,07,03,06,9.20
2016,04,07,03,07,9.20
2016,04,07,03,08,9.20
2016,04,07,03,09,9.20
2016,04,07,03,10,9.20
2016,04,07,03,11,9.20
2016,04,07,03,12,9.20
2016,04,07,03,13,9.20
2016,04,07,03,14,9.20
2016,04,07,03,15,9.20
2016,04,07,03,16,9.20
2016,04,07,03,17,9.20
2016,04,07,03,18,9.20
2016,04,07,03,19,9.10
2016,04,07,03,20,9.10
2016,04,07,03,21,9.10
2016,04,07,03,22,9.10
2016,04,07,03,23,9.10
2016,04,07,03,24,9.10
2016,04,07,03,25,9.10
2016,04,07,03,26,9.10
2016,04,07,03,27,9.10
2016,04,07,03,28,9.00
2016,04,07,03,29,9.00
2016,04,07,03,30,9.00
2016,04,07,03,31,9.00
2016,04,07,03,32,9.00
2016,04,07,03,33,9.00
2016,04,07,03,34,9.00
2016,04,07,03,35,9.00
2016,04,07,03,36,9.00
2016,04,07,03,37,9.00
2016,04,07,03,38,9.00
2016,04,07,03,39,9.00
2016,04,07,03,40,9.00
2016,04,07,03,41,9.00
2016,04,07,03,42,9.00
2016,04,07,03,43,9.00
2016,04,07,03,44,8.90
2016,04,07,03,45,8.90
2016,04,07,03,46,8.90
2016,04,07,03,47,8.90
2016,04,07,03,48,8.90
2016,04,07,03,49,8.90
2016,04,07,03,50,8.90
2016,04,07,03,51,8.80
2016,04,07,03,52,8.80
2016,04,07,03,53,8.80
2016,04,07,03,54,8.80
2016,04,07,03,55,8.80
2016,04,07,03,56,8.80
2016,04,07,03,57,8.80
2016,04,07,03,58,8.80
2016,04,07,03,59,8.80
2016,04,07,04,00,8.80
2016,04,07,04,01,8.80
2016,04,07,04,02,8.80
2016,04,07,04,03,8.80
2016,04,07,04,04,8.80
2016,04,07,04,05,8.80
2016,04,07,04,06,8.80
2016,04,07,04,07,8.80
2016,04,07,04,08,8.80
2016,04,07,04,09,8.80
2016,04,07,04,10,8.80
2016,04,07,04,11,8.80
2016,04,07,04,12,8.90
2016,04,07,04,13,8.90
2016,04,07,04,14,8.90
2016,04,07,04,15,8.90
2016,04,07,04,16,8.90
2016,04,07,04,17,8.90
2016,04,07,04,18,8.90
2016,04,07,04,19,8.90
2016,04,07,04,20,8.90
2016,04,07,04,21,8.90
2016,04,07,04,22,8.90
2016,04,07,04,23,8.90
2016,04,07,04,24,8.90
2016,04,07,04,25,8.90
2016,04,07,04,26,8.90
2016,04,07,04,27,8.90
2016,04,07,04,28,8.90
2016,04,07,04,29,8.90
2016,04,07,04,30,8.90
2016,04,07,04,31,8.90
2016,04,07,04,32,8.90
2016,04,07,04,33,8.90
2016,04,07,04,34,8.90
2016,04,07,04,35,8.90
2016,04,07,04,36,8.90
2016,04,07,04,37,8.80
2016,04,07,04,38,8.80
2016,04,07,04,39,8.80
2016,04,07,04,40,8.80
2016,04,07,04,41,8.80
2016,04,07,04,42,8.80
2016,04,07,04,43,8.80
2016,04,07,04,44,8.80
2016,04,07,04,45,8.80
2016,04,07,04,46,8.80
2016,04,07,04,47,8.80
2016,04,07,04,48,8.80
2016,04,07,04,49,8.80
2016,04,07,04,50,8.90
2016,04,07,04,51,8.90
2016,04,07,04,52,8.90
2016,04,07,04,53,8.90
2016,04,07,04,54,8.90
2016,04,07,04,55,8.90
2016,04,07,04,56,8.90
2016,04,07,04,57,8.90
2016,04,07,04,58,8.90
2016,04,07,04,59,8.90
2016,04,07,05,00,8.90
2016,04,07,05,01,8.90
2016,04,07,05,02,8.90
2016,04,07,05,03,8.90
2016,04,07,05,04,8.90
2016,04,07,05,05,8.90
2016,04,07,05,06,8.90
2016,04,07,05,07,8.90
2016,04,07,05,08,8.90
2016,04,07,05,09,8.90
2016,04,07,05,10,8.90
2016,04,07,05,11,8.90
2016,04,07,05,12,8.90
2016,04,07,05,13,8.90
2016,04,07,05,14,8.90
2016,04,07,05,15,8.90
2016,04,07,05,16,8.90
2016,04,07,05,17,8.90
2016,04,07,05,18,8.90
2016,04,07,05,19,8.90
2016,04,07,05,20,8.90
2016,04,07,05,21,8.90
2016,04,07,05,22,8.90
2016,04,07,05,23,8.90
2016,04,07,05,24,8.90
2016,04,07,05,25,8.90
2016,04,07,05,26,8.90
2016,04,07,05,27,8.90
2016,04,07,05,28,8.90
2016,04,07,05,29,8.90
2016,04,07,05,30,8.90
2016,04,07,05,31,8.90
2016,04,07,05,32,8.90
2016,04,07,05,33,8.90
2016,04,07,05,34,8.80
2016,04,07,05,35,8.80
2016,04,07,05,36,8.80
2016,04,07,05,37,8.80
2016,04,07,05,38,8.80
2016,04,07,05,39,8.80
2016,04,07,05,40,8.80
2016,04,07,05,41,8.80
2016,04,07,05,42,8.80
2016,04,07,05,43,8.80
2016,04,07,05,44,8.80
2016,04,07,05,45,8.80
2016,04,07,05,46,8.80
2016,04,07,05,47,8.80
2016,04,07,05,48,8.80
2016,04,07,05,49,8.90
2016,04,07,05,50,8.90
2016,04,07,05,51,8.90
2016,04,07,05,52,8.90
2016,04,07,05,53,8.90
2016,04,07,05,54,8.90
2016,04,07,05,55,8.90
2016,04,07,05,56,8.90
2016,04,07,05,57,8.90
2016,04,07,05,58,8.90
2016,04,07,05,59,8.90
2016,04,07,06,00,8.90
2016,04,07,06,01,8.90
2016,04,07,06,02,8.90
2016,04,07,06,03,8.90
2016,04,07,06,04,8.90
2016,04,07,06,05,8.90
2016,04,07,06,06,8.90
2016,04,07,06,07,8.90
2016,04,07,06,08,8.90
2016,04,07,06,09,8.90
2016,04,07,06,10,8.90
2016,04,07,06,11,8.90
2016,04,07,06,12,8.90
2016,04,07,06,13,8.90
2016,04,07,06,14,8.90
2016,04,07,06,15,8.90
2016,04,07,06,16,8.90
2016,04,07,06,17,8.90
2016,04,07,06,18,8.90
2016,04,07,06,19,8.90
2016,04,07,06,20,8.90
2016,04,07,06,21,8.80
2016,04,07,06,22,8.80
2016,04,07,06,23,8.80
2016,04,07,06,24,8.80
2016,04,07,06,25,8.80
2016,04,07,06,26,8.80
2016,04,07,06,27,8.80
2016,04,07,06,28,8.80
2016,04,07,06,29,8.80
2016,04,07,06,30,8.80
2016,04,07,06,31,8.80
2016,04,07,06,32,8.80
2016,04,07,06,33,8.80
2016,04,07,06,34,8.80
2016,04,07,06,35,8.70
2016,04,07,06,36,8.70
2016,04,07,06,37,8.70
2016,04,07,06,38,8.70
2016,04,07,06,39,8.70
2016,04,07,06,40,8.70
2016,04,07,06,41,8.70
2016,04,07,06,42,8.70
2016,04,07,06,43,8.70
2016,04,07,06,44,8.60
2016,04,07,06,45,8.70
2016,04,07,06,46,8.60
2016,04,07,06,47,8.60
2016,04,07,06,48,8.60
2016,04,07,06,49,8.60
2016,04,07,06,50,8.60
2016,04,07,06,51,8.60
2016,04,07,06,52,8.60
2016,04,07,06,53,8.60
2016,04,07,06,54,8.60
2016,04,07,06,55,8.60
2016,04,07,06,56,8.60
2016,04,07,06,57,8.60
2016,04,07,06,58,8.60
2016,04,07,06,59,8.60
2016,04,07,07,00,8.60
2016,04,07,07,01,8.60
2016,04,07,07,02,8.60
2016,04,07,07,03,8.60
2016,04,07,07,04,8.60
2016,04,07,07,05,8.60
2016,04,07,07,06,8.60
2016,04,07,07,07,8.60
2016,04,07,07,08,8.70
2016,04,07,07,09,8.70
2016,04,07,07,10,8.70
2016,04,07,07,11,8.70
2016,04,07,07,12,8.70
2016,04,07,07,13,8.70
2016,04,07,07,14,8.70
2016,04,07,07,15,8.80
2016,04,07,07,16,8.80
2016,04,07,07,17,8.80
2016,04,07,07,18,8.80
2016,04,07,07,19,8.80
2016,04,07,07,20,8.80
2016,04,07,07,21,8.80
2016,04,07,07,22,8.80
2016,04,07,07,23,8.80
2016,04,07,07,24,8.80
2016,04,07,07,25,8.80
2016,04,07,07,26,8.90
2016,04,07,07,27,8.90
2016,04,07,07,28,8.90
2016,04,07,07,29,8.90
2016,04,07,07,30,8.90
2016,04,07,07,31,8.90
2016,04,07,07,32,8.90
2016,04,07,07,33,8.90
2016,04,07,07,34,8.90
2016,04,07,07,35,8.90
2016,04,07,07,36,8.90
2016,04,07,07,37,9.00
2016,04,07,07,38,9.00
2016,04,07,07,39,9.00
2016,04,07,07,40,9.00
2016,04,07,07,41,9.00
2016,04,07,07,42,9.00
2016,04,07,07,43,9.00
2016,04,07,07,44,9.00
2016,04,07,07,45,9.00
2016,04,07,07,46,9.00
2016,04,07,07,47,9.00
2016,04,07,07,48,9.00
2016,04,07,07,49,9.00
2016,04,07,07,50,9.00
2016,04,07,07,51,9.00
2016,04,07,07,52,9.00
2016,04,07,07,53,9.00
2016,04,07,07,54,9.00
2016,04,07,07,55,9.00
2016,04,07,07,56,9.00
2016,04,07,07,57,9.00
2016,04,07,07,58,9.00
2016,04,07,07,59,9.00
2016,04,07,08,00,9.00
2016,04,07,08,01,9.00
2016,04,07,08,02,9.00
2016,04,07,08,03,9.00
2016,04,07,08,04,9.10
2016,04,07,08,05,9.10
2016,04,07,08,06,9.10
2016,04,07,08,07,9.10
2016,04,07,08,08,9.10
2016,04,07,08,09,9.10
2016,04,07,08,10,9.10
2016,04,07,08,11,9.10
2016,04,07,08,12,9.10
2016,04,07,08,13,9.10
2016,04,07,08,14,9.10
2016,04,07,08,15,9.10
2016,04,07,08,16,9.10
2016,04,07,08,17,9.10
2016,04,07,08,18,9.10
2016,04,07,08,19,9.20
2016,04,07,08,20,9.20
2016,04,07,08,21,9.20
2016,04,07,08,22,9.20
2016,04,07,08,23,9.20
2016,04,07,08,24,9.20
2016,04,07,08,25,9.20
2016,04,07,08,26,9.20
2016,04,07,08,27,9.30
2016,04,07,08,28,9.30
2016,04,07,08,29,9.30
2016,04,07,08,30,9.30
2016,04,07,08,31,9.30
2016,04,07,08,32,9.30
2016,04,07,08,33,9.40
2016,04,07,08,34,9.40
2016,04,07,08,35,9.40
2016,04,07,08,36,9.40
2016,04,07,08,37,9.50
2016,04,07,08,38,9.60
2016,04,07,08,39,9.60
2016,04,07,08,40,9.60
2016,04,07,08,41,9.70
2016,04,07,08,42,9.70
2016,04,07,08,43,9.80
2016,04,07,08,44,9.80
2016,04,07,08,45,9.90
2016,04,07,08,46,9.90
2016,04,07,08,47,10.00
2016,04,07,08,48,10.00
2016,04,07,08,49,10.10
2016,04,07,08,50,10.10
2016,04,07,08,51,10.10
2016,04,07,08,52,10.20
2016,04,07,08,53,10.20
2016,04,07,08,54,10.20
2016,04,07,08,55,10.30
2016,04,07,08,56,10.30
2016,04,07,08,57,10.30
2016,04,07,08,58,10.30
2016,04,07,08,59,10.30
2016,04,07,09,00,10.30
2016,04,07,09,01,10.30
2016,04,07,09,02,10.30
2016,04,07,09,03,10.30
2016,04,07,09,04,10.30
2016,04,07,09,05,10.40
2016,04,07,09,06,10.40
2016,04,07,09,07,10.40
2016,04,07,09,08,10.40
2016,04,07,09,09,10.50
2016,04,07,09,10,10.50
2016,04,07,09,11,10.60
2016,04,07,09,12,10.60
2016,04,07,09,13,10.70
2016,04,07,09,14,10.70
2016,04,07,09,15,10.80
2016,04,07,09,16,10.80
2016,04,07,09,17,10.90
2016,04,07,09,18,10.90
2016,04,07,09,19,10.90
2016,04,07,09,20,10.90
2016,04,07,09,21,11.00
2016,04,07,09,22,11.00
2016,04,07,09,23,11.10
2016,04,07,09,24,11.10
2016,04,07,09,25,11.20
2016,04,07,09,26,11.20
2016,04,07,09,27,11.30
2016,04,07,09,28,11.30
2016,04,07,09,29,11.30
2016,04,07,09,30,11.40
2016,04,07,09,31,11.40
2016,04,07,09,32,11.40
2016,04,07,09,33,11.40
2016,04,07,09,34,11.50
2016,04,07,09,35,11.50
2016,04,07,09,36,11.50
2016,04,07,09,37,11.50
2016,04,07,09,38,11.60
2016,04,07,09,39,11.60
2016,04,07,09,40,11.60
2016,04,07,09,41,11.60
2016,04,07,09,42,11.60
2016,04,07,09,43,11.60
2016,04,07,09,44,11.60
2016,04,07,09,45,11.60
2016,04,07,09,46,11.70
2016,04,07,09,47,11.70
2016,04,07,09,48,11.70
2016,04,07,09,49,11.70
2016,04,07,09,50,11.70
2016,04,07,09,51,11.80
2016,04,07,09,52,11.80
2016,04,07,09,53,11.80
2016,04,07,09,54,11.80
2016,04,07,09,55,11.80
2016,04,07,09,56,11.90
2016,04,07,09,57,11.90
2016,04,07,09,58,11.90
2016,04,07,09,59,12.00
2016,04,07,10,00,12.00
2016,04,07,10,01,12.10
2016,04,07,10,02,12.10
2016,04,07,10,03,12.10
2016,04,07,10,04,12.10
2016,04,07,10,05,12.20
2016,04,07,10,06,12.20
2016,04,07,10,07,12.20
2016,04,07,10,08,12.20
2016,04,07,10,09,12.30
2016,04,07,10,10,12.30
2016,04,07,10,11,12.30
2016,04,07,10,12,12.40
2016,04,07,10,13,12.40
2016,04,07,10,14,12.40
2016,04,07,10,15,12.40
2016,04,07,10,16,12.50
2016,04,07,10,17,12.50
2016,04,07,10,18,12.60
2016,04,07,10,19,12.60
2016,04,07,10,20,12.60
2016,04,07,10,21,12.60
2016,04,07,10,22,12.60
2016,04,07,10,23,12.60
2016,04,07,10,24,12.70
2016,04,07,10,25,12.80
2016,04,07,10,26,12.80
2016,04,07,10,27,12.80
2016,04,07,10,28,12.80
2016,04,07,10,29,12.80
2016,04,07,10,30,12.90
2016,04,07,10,31,12.90
2016,04,07,10,32,12.90
2016,04,07,10,33,13.00
2016,04,07,10,34,13.00
2016,04,07,10,35,13.10
2016,04,07,10,36,13.10
2016,04,07,10,37,13.20
2016,04,07,10,38,13.20
2016,04,07,10,39,13.30
2016,04,07,10,40,13.40
2016,04,07,10,41,13.40
2016,04,07,10,42,13.40
2016,04,07,10,43,13.50
2016,04,07,10,44,13.50
2016,04,07,10,45,13.60
2016,04,07,10,46,13.70
2016,04,07,10,47,13.70
2016,04,07,10,48,13.70
2016,04,07,10,49,13.80
2016,04,07,10,50,13.80
2016,04,07,10,51,13.90
2016,04,07,10,52,13.90
2016,04,07,10,53,14.00
2016,04,07,10,54,14.10
2016,04,07,10,55,14.10
2016,04,07,10,56,14.10
2016,04,07,10,57,14.20
2016,04,07,10,58,14.30
2016,04,07,10,59,14.30
2016,04,07,11,00,14.40
2016,04,07,11,01,14.50
2016,04,07,11,02,14.50
2016,04,07,11,03,14.60
2016,04,07,11,04,14.60
2016,04,07,11,05,14.50
2016,04,07,11,06,14.50
2016,04,07,11,07,14.60
2016,04,07,11,08,14.60
2016,04,07,11,09,14.60
2016,04,07,11,10,14.60
2016,04,07,11,11,14.60
2016,04,07,11,12,14.60
2016,04,07,11,13,14.70
2016,04,07,11,14,14.80
2016,04,07,11,15,14.80
2016,04,07,11,16,14.80
2016,04,07,11,17,14.80
2016,04,07,11,18,14.90
2016,04,07,11,19,14.90
2016,04,07,11,20,14.90
2016,04,07,11,21,15.00
2016,04,07,11,22,15.00
2016,04,07,11,23,15.00
2016,04,07,11,24,15.00
2016,04,07,11,25,15.10
2016,04,07,11,26,15.10
2016,04,07,11,27,15.10
2016,04,07,11,28,15.20
2016,04,07,11,29,15.20
2016,04,07,11,30,15.20
2016,04,07,11,31,15.20
2016,04,07,11,32,15.30
2016,04,07,11,33,15.30
2016,04,07,11,34,15.30
2016,04,07,11,35,15.30
2016,04,07,11,36,15.20
2016,04,07,11,37,15.20
2016,04,07,11,38,15.20
2016,04,07,11,39,15.20
2016,04,07,11,40,15.20
2016,04,07,11,41,15.20
2016,04,07,11,42,15.30
2016,04,07,11,43,15.30
2016,04,07,11,44,15.30
2016,04,07,11,45,15.30
2016,04,07,11,46,15.30
2016,04,07,11,47,15.40
2016,04,07,11,48,15.40
2016,04,07,11,49,15.40
2016,04,07,11,50,15.50
2016,04,07,11,51,15.50
2016,04,07,11,52,15.60
2016,04,07,11,53,15.60
2016,04,07,11,54,15.60
2016,04,07,11,55,15.70
2016,04,07,11,56,15.80
2016,04,07,11,57,15.80
2016,04,07,11,58,15.90
2016,04,07,11,59,15.90
2016,04,07,12,00,15.90
2016,04,07,12,01,15.90
2016,04,07,12,02,15.90
2016,04,07,12,03,15.90
2016,04,07,12,04,16.00
2016,04,07,12,05,16.00
2016,04,07,12,06,16.00
2016,04,07,12,07,16.10
2016,04,07,12,08,16.10
2016,04,07,12,09,16.10
2016,04,07,12,10,16.10
2016,04,07,12,11,16.10
2016,04,07,12,12,16.10
2016,04,07,12,13,16.20
2016,04,07,12,14,16.10
2016,04,07,12,15,16.10
2016,04,07,12,16,16.20
2016,04,07,12,17,16.20
2016,04,07,12,18,16.20
2016,04,07,12,19,16.10
2016,04,07,12,20,16.10
2016,04,07,12,21,16.10
2016,04,07,12,22,16.10
2016,04,07,12,23,16.10
2016,04,07,12,24,16.10
2016,04,07,12,25,16.10
2016,04,07,12,26,16.10
2016,04,07,12,27,16.20
2016,04,07,12,28,16.20
2016,04,07,12,29,16.30
2016,04,07,12,30,16.30
2016,04,07,12,31,16.30
2016,04,07,12,32,16.30
2016,04,07,12,33,16.40
2016,04,07,12,34,16.40
2016,04,07,12,35,16.40
2016,04,07,12,36,16.40
2016,04,07,12,37,16.50
2016,04,07,12,38,16.50
2016,04,07,12,39,16.60
2016,04,07,12,40,16.60
2016,04,07,12,41,16.60
2016,04,07,12,42,16.70
2016,04,07,12,43,16.70
2016,04,07,12,44,16.80
2016,04,07,12,45,16.80
2016,04,07,12,46,16.90
2016,04,07,12,47,16.90
2016,04,07,12,48,17.00
2016,04,07,12,49,17.10
2016,04,07,12,50,17.10
2016,04,07,12,51,17.10
2016,04,07,12,52,17.20
2016,04,07,12,53,17.20
2016,04,07,12,54,17.20
2016,04,07,12,55,17.20
2016,04,07,12,56,17.10
2016,04,07,12,57,17.10
2016,04,07,12,58,17.10
2016,04,07,12,59,17.10
2016,04,07,13,00,17.10
2016,04,07,13,01,17.20
2016,04,07,13,02,17.10
2016,04,07,13,03,17.00
2016,04,07,13,04,16.90
2016,04,07,13,05,16.90
2016,04,07,13,06,16.90
2016,04,07,13,07,16.90
2016,04,07,13,08,16.90
2016,04,07,13,09,16.90
2016,04,07,13,10,17.00
2016,04,07,13,11,17.00
2016,04,07,13,12,17.10
2016,04,07,13,13,17.10
2016,04,07,13,14,17.10
2016,04,07,13,15,17.20
2016,04,07,13,16,17.20
2016,04,07,13,17,17.20
2016,04,07,13,18,17.20
2016,04,07,13,19,17.20
2016,04,07,13,20,17.30
2016,04,07,13,21,17.30
2016,04,07,13,22,17.40
2016,04,07,13,23,17.40
2016,04,07,13,24,17.50
2016,04,07,13,25,17.50
2016,04,07,13,26,17.60
2016,04,07,13,27,17.70
2016,04,07,13,28,17.70
2016,04,07,13,29,17.80
2016,04,07,13,30,17.80
2016,04,07,13,31,17.80
2016,04,07,13,32,17.80
2016,04,07,13,33,17.80
2016,04,07,13,34,17.80
2016,04,07,13,35,17.70
2016,04,07,13,36,17.70
2016,04,07,13,37,17.70
2016,04,07,13,38,17.60
2016,04,07,13,39,17.70
2016,04,07,13,40,17.70
2016,04,07,13,41,17.70
2016,04,07,13,42,17.80
2016,04,07,13,43,17.80
2016,04,07,13,44,17.80
2016,04,07,13,45,17.80
2016,04,07,13,46,17.80
2016,04,07,13,47,17.70
2016,04,07,13,48,17.70
2016,04,07,13,49,17.70
2016,04,07,13,50,17.80
2016,04,07,13,51,17.80
2016,04,07,13,52,17.80
2016,04,07,13,53,17.80
2016,04,07,13,54,17.80
2016,04,07,13,55,17.80
2016,04,07,13,56,17.80
2016,04,07,13,57,17.70
2016,04,07,13,58,17.80
2016,04,07,13,59,17.80
2016,04,07,14,00,17.80
2016,04,07,14,01,17.80
2016,04,07,14,02,17.80
2016,04,07,14,03,17.80
2016,04,07,14,04,17.90
2016,04,07,14,05,17.90
2016,04,07,14,06,17.90
2016,04,07,14,07,18.00
2016,04,07,14,08,18.00
2016,04,07,14,09,18.10
2016,04,07,14,10,18.10
2016,04,07,14,11,18.10
2016,04,07,14,12,18.10
2016,04,07,14,13,18.10
2016,04,07,14,14,18.10
2016,04,07,14,15,18.10
2016,04,07,14,16,18.00
2016,04,07,14,17,18.00
2016,04,07,14,18,18.00
2016,04,07,14,19,18.00
2016,04,07,14,20,18.00
2016,04,07,14,21,18.00
2016,04,07,14,22,18.00
2016,04,07,14,23,18.10
2016,04,07,14,24,18.10
2016,04,07,14,25,18.10
2016,04,07,14,26,18.20
2016,04,07,14,27,18.20
2016,04,07,14,28,18.20
2016,04,07,14,29,18.20
2016,04,07,14,30,18.20
2016,04,07,14,31,18.20
2016,04,07,14,32,18.20
2016,04,07,14,33,18.20
2016,04,07,14,34,18.20
2016,04,07,14,35,18.20
2016,04,07,14,36,18.20
2016,04,07,14,37,18.20
2016,04,07,14,38,18.20
2016,04,07,14,39,18.20
2016,04,07,14,40,18.20
2016,04,07,14,41,18.30
2016,04,07,14,42,18.30
2016,04,07,14,43,18.30
2016,04,07,14,44,18.30
2016,04,07,14,45,18.30
2016,04,07,14,46,18.30
2016,04,07,14,47,18.30
2016,04,07,14,48,18.40
2016,04,07,14,49,18.40
2016,04,07,14,50,18.40
2016,04,07,14,51,18.40
2016,04,07,14,52,18.40
2016,04,07,14,53,18.40
2016,04,07,14,54,18.50
2016,04,07,14,55,18.60
2016,04,07,14,56,18.60
2016,04,07,14,57,18.60
2016,04,07,14,58,18.60
2016,04,07,14,59,18.70
2016,04,07,15,00,18.70
2016,04,07,15,01,18.70
2016,04,07,15,02,18.80
2016,04,07,15,03,18.80
2016,04,07,15,04,18.80
2016,04,07,15,05,18.90
2016,04,07,15,06,18.90
2016,04,07,15,07,18.90
2016,04,07,15,08,18.90
2016,04,07,15,09,18.80
2016,04,07,15,10,18.80
2016,04,07,15,11,18.80
2016,04,07,15,12,18.80
2016,04,07,15,13,18.80
2016,04,07,15,14,18.80
2016,04,07,15,15,18.80
2016,04,07,15,16,18.80
2016,04,07,15,17,18.80
2016,04,07,15,18,18.90
2016,04,07,15,19,18.90
2016,04,07,15,20,18.90
2016,04,07,15,21,19.00
2016,04,07,15,22,19.00
2016,04,07,15,23,19.00
2016,04,07,15,24,19.10
2016,04,07,15,25,19.10
2016,04,07,15,26,19.10
2016,04,07,15,27,19.10
2016,04,07,15,28,19.20
2016,04,07,15,29,19.20
2016,04,07,15,30,19.20
2016,04,07,15,31,19.20
2016,04,07,15,32,19.20
2016,04,07,15,33,19.20
2016,04,07,15,34,19.20
2016,04,07,15,35,19.20
2016,04,07,15,36,19.20
2016,04,07,15,37,19.30
2016,04,07,15,38,19.30
2016,04,07,15,39,19.30
2016,04,07,15,40,19.30
2016,04,07,15,41,19.40
2016,04,07,15,42,19.40
2016,04,07,15,43,19.40
2016,04,07,15,44,19.40
2016,04,07,15,45,19.40
2016,04,07,15,46,19.40
2016,04,07,15,47,19.40
2016,04,07,15,48,19.40
2016,04,07,15,49,19.40
2016,04,07,15,50,19.40
2016,04,07,15,51,19.50
2016,04,07,15,52,19.50
2016,04,07,15,53,19.50
2016,04,07,15,54,19.50
2016,04,07,15,55,19.50
2016,04,07,15,56,19.50
2016,04,07,15,57,19.60
2016,04,07,15,58,19.60
2016,04,07,15,59,19.70
2016,04,07,16,00,19.70
2016,04,07,16,01,19.70
2016,04,07,16,02,19.70
2016,04,07,16,03,19.80
2016,04,07,16,04,19.80
2016,04,07,16,05,19.80
2016,04,07,16,06,19.90
2016,04,07,16,07,19.90
2016,04,07,16,08,20.00
2016,04,07,16,09,20.00
2016,04,07,16,10,20.10
2016,04,07,16,11,20.10
2016,04,07,16,12,20.20
2016,04,07,16,13,20.30
2016,04,07,16,14,20.30
2016,04,07,16,15,20.30
2016,04,07,16,16,20.30
2016,04,07,16,17,20.30
2016,04,07,16,18,20.30
2016,04,07,16,19,20.30
2016,04,07,16,20,20.30
2016,04,07,16,21,20.30
2016,04,07,16,22,20.30
2016,04,07,16,23,20.30
2016,04,07,16,24,20.30
2016,04,07,16,25,20.30
2016,04,07,16,26,20.30
2016,04,07,16,27,20.40
2016,04,07,16,28,20.40
2016,04,07,16,29,20.30
2016,04,07,16,30,20.30
2016,04,07,16,31,20.40
2016,04,07,16,32,20.40
2016,04,07,16,33,20.50
2016,04,07,16,34,20.60
2016,04,07,16,35,20.60
2016,04,07,16,36,20.60
2016,04,07,16,37,20.70
2016,04,07,16,38,20.70
2016,04,07,16,39,20.70
2016,04,07,16,40,20.70
2016,04,07,16,41,20.70
2016,04,07,16,42,20.70
2016,04,07,16,43,20.60
2016,04,07,16,44,20.60
2016,04,07,16,45,20.60
2016,04,07,16,46,20.60
2016,04,07,16,47,20.70
2016,04,07,16,48,20.70
2016,04,07,16,49,20.80
2016,04,07,16,50,20.80
2016,04,07,16,51,20.80
2016,04,07,16,52,20.90
2016,04,07,16,53,20.90
2016,04,07,16,54,20.90
2016,04,07,16,55,20.90
2016,04,07,16,56,21.00
2016,04,07,16,57,21.00
2016,04,07,16,58,21.00
2016,04,07,16,59,21.10
2016,04,07,17,00,21.10
2016,04,07,17,01,21.10
2016,04,07,17,02,21.00
2016,04,07,17,03,21.00
2016,04,07,17,04,21.00
2016,04,07,17,05,20.90
2016,04,07,17,06,20.90
2016,04,07,17,07,20.90
2016,04,07,17,08,20.90
2016,04,07,17,09,20.90
2016,04,07,17,10,20.90
2016,04,07,17,11,20.90
2016,04,07,17,12,20.90
2016,04,07,17,13,20.90
2016,04,07,17,14,20.90
2016,04,07,17,15,20.90
2016,04,07,17,16,20.90
2016,04,07,17,17,20.90
2016,04,07,17,18,20.90
2016,04,07,17,19,20.90
2016,04,07,17,20,20.90
2016,04,07,17,21,20.80
2016,04,07,17,22,20.80
2016,04,07,17,23,20.80
2016,04,07,17,24,20.80
2016,04,07,17,25,20.80
2016,04,07,17,26,20.80
2016,04,07,17,27,20.80
2016,04,07,17,28,20.80
2016,04,07,17,29,20.80
2016,04,07,17,30,20.80
2016,04,07,17,31,20.90
2016,04,07,17,32,20.90
2016,04,07,17,33,20.90
2016,04,07,17,34,20.90
2016,04,07,17,35,21.00
2016,04,07,17,36,21.00
2016,04,07,17,37,21.10
2016,04,07,17,38,21.10
2016,04,07,17,39,21.20
2016,04,07,17,40,21.20
2016,04,07,17,41,21.20
2016,04,07,17,42,21.20